C/2022 E2 ( ATLAS )

Japanese version
Home page
Updated on June 5, 2024

---------------------------------------------------------------------

* Profile

Discovery Date March 7, 2022
Magnitude 18.7 mag
Discoverer Asteroid Terrestrial-Impact Last Alert System (ATLAS) search program

* Pictures

* Orbital Elements

Epoch 2024 Mar. 31.0 TT = JDT 2460400.5
T 2024 Sept. 14.09544 TT                                Rudenko
q   3.6663687            (2000.0)            P               Q
z  -0.0002060      Peri.   41.71255     -0.03448608     +0.83125734
 +/-0.0000005      Node   125.37020     +0.63737012     -0.40930564
e   1.0007553      Incl.  137.12517     +0.76978571     +0.37613844
>From 2235 observations 2022 Feb. 23-2024 Mar. 17, mean residual 0".5.

* Finding Charts

* Magnitudes Graph

        m1 = 2.2 + 5 log d + 12.5 log r

---------------------------------------------------------------------

The orbital elements are published on M.P.E.C. 2024-F34.
The charts are made with StellaNavigator Ver.10 (AstroArts).
The magnitudes graphs are made with Comet for Windows.

---------------------------------------------------------------------

Copyright(C) Seiichi Yoshida (comet@aerith.net). All rights reserved.